Effective Sunday, March 17, 2024, the National Weather Service National Data Buoy Center will discontinue its Dial-A-Buoy Interactive Voice Response system. For more information, see Service Change Notice 24-06 (PDF).

Station OOUH1 - 1612340 - Honolulu, HI Image indicating link to RSS feed of recent meteorological observations for station OOUH1


Conditions at OOUH1 as of
(9:18 am HAST)
1918 GMT on 02/23/2024:
     

Click on the graph icon in the table below to see a time series plot of the last five days of that observation.

5-day plot - Wind Direction Wind Direction (WDIR): E ( 100 deg true )
5-day plot - Wind Speed Wind Speed (WSPD): 4.1 kts
5-day plot - Wind Gust Wind Gust (GST): 9.9 kts
5-day plot - Atmospheric Pressure Atmospheric Pressure (PRES):30.10 in
5-day plot - Air Temperature Air Temperature (ATMP): 76.3 °F
5-day plot - Water Temperature Water Temperature (WTMP): 75.4 °F
5-day plot - Wind Speed at 10 Meters Wind Speed at 10 meters (WSPD10M): 3.9 kts
5-day plot - Wind Speed at 20 Meters Wind Speed at 20 meters (WSPD20M): 3.9 kts
5-day plot -  Wind Speed, Wind Gust and Atmospheric Pressure Combined plot of Wind Speed, Gust, and Air Pressure
NOS Water Level Observation Network Water Level
Previous observations
TIME
(HAST)
5-day plot - Wind Direction
WDIR
 
5-day plot - Wind Speed
WSPD
kts
5-day plot - Wind Gust
GST
kts
5-day plot - Wave Height
WVHT
ft
5-day plot - Dominant Wave Period
DPD
sec
5-day plot - Average Wave Period
APD
sec
5-day plot - Mean Wave Direction
MWD
 
5-day plot - Atmospheric Pressure
PRES
in
5-day plot - Pressure Tendency
PTDY
in
5-day plot - Air Temperature
ATMP
°F
5-day plot - Water Temperature
WTMP
°F
5-day plot - Dew Point
DEWP
°F
5-day plot - Salinity
SAL
psu
5-day plot - Visibility
VIS
nmi
5-day plot - Tide (above MLLW)
TIDE
ft
2024-02-23 09:12 am E 5.1 8.9----30.10- 75.9 75.4----
2024-02-23 09:06 amENE 5.1 8.9----30.10- 75.2 75.2----
2024-02-23 09:00 am E 1.9 5.1----30.10+0.02 76.1 75.4----
2024-02-23 08:54 amENE 2.9 7.0----30.10- 75.4 75.4----
2024-02-23 08:48 amESE 5.1 8.0----30.10- 75.2 75.4----
2024-02-23 08:42 am E 4.1 7.0----30.10- 75.0 75.4----
2024-02-23 08:36 am E 4.1 8.0----30.10- 75.0 75.4----
2024-02-23 08:30 amENE 1.0 7.0----30.10- 75.2 75.4----
2024-02-23 08:24 am E 1.9 5.1----30.10- 75.0 75.4----
2024-02-23 08:18 amENE 4.1 5.1----30.09- 74.5 75.4----
2024-02-23 08:12 amENE 2.9 6.0----30.09- 74.5 75.4----
2024-02-23 08:06 amNNE 4.1 6.0----30.09- 73.9 75.4----
2024-02-23 08:00 am N 1.9 4.1----30.09+0.01 73.2 75.4----
2024-02-23 07:54 am- 0.0 2.9----30.09- 73.6 75.4----
2024-02-23 07:48 amNNW 1.0 1.9----30.09- 72.7 75.4----
2024-02-23 07:42 am N 1.9 4.1----30.09- 72.7 75.4----
2024-02-23 07:36 amNNE 1.9 4.1----30.09- 73.0 75.4----
2024-02-23 07:30 am- 0.0 1.9----30.09- 73.0 75.4----
2024-02-23 07:24 amENE 1.0 1.9----30.09- 72.5 75.2----
2024-02-23 07:18 am- 0.0 1.9----30.09- 72.3 75.2----
2024-02-23 07:12 am S 1.0 4.1----30.09- 72.1 75.2----
2024-02-23 07:06 amESE 1.9 5.1----30.09- 72.1 75.2----
2024-02-23 07:00 amESE 4.1 6.0----30.09+0.00 72.1 75.4----
2024-02-23 06:54 am E 1.9 2.9----30.09- 72.0 75.4----
2024-02-23 06:48 am E 1.9 4.1----30.09- 71.8 75.4----
2024-02-23 06:42 amENE 1.0 4.1----30.09- 71.6 75.4----
2024-02-23 06:36 am NE 1.9 4.1----30.08- 71.6 75.4----
2024-02-23 06:30 amENE 1.9 4.1----30.08- 71.6 75.4----
2024-02-23 06:24 amENE 1.9 5.1----30.08- 71.8 75.4----
2024-02-23 06:18 amESE 2.9 4.1----30.08- 71.8 75.4----
2024-02-23 06:12 amESE 1.0 4.1----30.08- 71.8 75.4----
2024-02-23 06:06 am- 0.0 2.9----30.08- 71.8 75.4----
2024-02-23 06:00 amESE 1.9 4.1----30.08-0.01 71.8 75.4----
2024-02-23 05:54 am SE 1.0 2.9----30.08- 71.8 75.4----
2024-02-23 05:48 am SE 4.1 6.0----30.08- 71.8 75.4----
2024-02-23 05:42 am N 1.0 2.9----30.08- 71.4 75.4----
2024-02-23 05:36 am N 1.9 4.1----30.08- 71.4 75.4----
2024-02-23 05:30 am- 0.0 2.9----30.08- 71.1 75.4----
2024-02-23 05:24 am N 1.9 2.9----30.08- 71.1 75.4----
2024-02-23 05:18 amENE 1.0 6.0----30.08- 71.2 75.4----
2024-02-23 05:12 am N 4.1 7.0----30.07- 71.6 75.4----
2024-02-23 05:06 amENE 2.9 6.0----30.08- 71.8 75.4----
2024-02-23 05:00 am NE 1.0 1.9----30.08-0.02 71.2 75.4----
2024-02-23 04:54 am NE 1.0 2.9----30.08- 71.4 75.4----
2024-02-23 04:48 amENE 1.9 4.1----30.08- 71.6 75.4----
2024-02-23 04:42 am NE 2.9 5.1----30.08- 71.8 75.4----
2024-02-23 04:36 am NE 1.0 1.9----30.08- 71.8 75.4----
2024-02-23 04:30 am- 0.0 2.9----30.08- 72.0 75.4----
2024-02-23 04:24 am E 1.9 2.9----30.08- 72.0 75.4----
2024-02-23 04:18 amENE 1.0 2.9----30.08- 72.0 75.4----
2024-02-23 04:12 am NE 1.0 1.9----30.08- 72.0 75.4----
2024-02-23 04:06 am E 1.0 2.9----30.09- 72.1 75.4----
2024-02-23 04:00 amENE 1.0 6.0----30.09-0.04 72.3 75.4----
2024-02-23 03:54 am NE 1.9 4.1----30.09- 72.3 75.4----
2024-02-23 03:48 am NE 4.1 6.0----30.09- 72.3 75.4----
2024-02-23 03:42 amENE 2.9 6.0----30.09- 72.5 75.4----
2024-02-23 03:36 am NE 2.9 5.1----30.09- 72.3 75.6----
2024-02-23 03:30 amENE 1.0 4.1----30.09- 72.3 75.6----
2024-02-23 03:24 am NE 1.0 5.1----30.09- 72.3 75.4----
2024-02-23 03:18 am NE 1.9 6.0----30.09- 72.3 75.4----
2024-02-23 03:12 amENE 1.0 4.1----30.09- 72.3 75.4----
2024-02-23 03:06 amENE 1.9 5.1----30.09- 72.5 75.4----
2024-02-23 03:00 am E 1.0 2.9----30.09-0.04 72.7 75.4----
2024-02-23 02:54 am NE 1.9 8.0----30.10- 72.7 75.4----
2024-02-23 02:48 amNNE 4.1 8.0----30.10- 72.9 75.4----
2024-02-23 02:42 am NE 2.9 8.9----30.10- 72.9 75.4----
2024-02-23 02:36 amENE 2.9 5.1----30.10- 72.9 75.6----
2024-02-23 02:30 amENE 2.9 5.1----30.10- 72.7 75.6----
2024-02-23 02:24 amENE 2.9 5.1----30.10- 72.7 75.6----
2024-02-23 02:18 am E 2.9 5.1----30.10- 72.9 75.4----
2024-02-23 02:12 am E 1.9 5.1----30.10- 72.9 75.6----
2024-02-23 02:06 am E 2.9 7.0----30.10- 73.0 75.4----
2024-02-23 02:00 am E 4.1 8.9----30.10-0.05 73.0 75.6----
2024-02-23 01:54 am NE 4.1 8.9----30.11- 73.0 75.6----
2024-02-23 01:48 amENE 4.1 8.0----30.11- 73.0 75.2----
2024-02-23 01:42 amESE 4.1 8.9----30.11- 73.2 75.2----
2024-02-23 01:36 amESE 2.9 5.1----30.11- 73.2 75.2----
2024-02-23 01:30 amESE 1.9 6.0----30.11- 73.2 75.4----
2024-02-23 01:24 amENE 1.9 2.9----30.11- 73.2 75.4----
2024-02-23 01:18 amENE 1.9 5.1----30.11- 73.2 75.4----
2024-02-23 01:12 am E 1.9 8.9----30.11- 73.0 75.4----
2024-02-23 01:06 amESE 1.9 6.0----30.12- 73.0 75.2----
2024-02-23 01:00 amESE 1.9 4.1----30.12-0.03 72.7 75.2----
2024-02-23 12:54 am NE 2.9 6.0----30.12- 72.9 75.2----
2024-02-23 12:48 am NE 2.9 5.1----30.13- 72.7 75.2----
2024-02-23 12:42 am- 0.0 6.0----30.13- 72.9 75.2----
2024-02-23 12:36 am E 2.9 6.0----30.13- 73.0 75.2----
2024-02-23 12:30 am E 1.9 5.1----30.13- 72.9 75.2----
2024-02-23 12:24 am NE 1.9 4.1----30.13- 72.7 75.2----
2024-02-23 12:18 am NE 1.9 4.1----30.13- 72.7 75.2----
2024-02-23 12:12 am E 1.0 2.9----30.13- 72.7 75.4----
2024-02-23 12:06 amENE 1.9 2.9----30.14- 72.5 75.4----
2024-02-23 12:00 am- 0.0 0.0----30.14-0.01 72.0 75.4----
2024-02-22 11:54 pm- 0.0 1.0----30.14- 72.1 75.4----
2024-02-22 11:48 pm W 1.0 1.9----30.14- 72.0 75.7----
2024-02-22 11:42 pm- 0.0 2.9----30.14- 72.1 75.6----
2024-02-22 11:36 pmNNE 1.0 4.1----30.14- 72.0 75.6----
2024-02-22 11:30 pmNNE 1.9 5.1----30.14- 72.1 75.6----
2024-02-22 11:24 pmNNE 1.9 2.9----30.14- 72.0 75.7----
2024-02-22 11:18 pm N 1.0 5.1----30.15- 71.8 75.7----
2024-02-22 11:12 pmNNW 2.9 4.1----30.15- 71.6 75.6----
2024-02-22 11:06 pm N 1.0 2.9----30.15- 71.8 75.6----
2024-02-22 11:00 pmNNW 1.9 1.9----30.15+0.01 72.1 75.6----
2024-02-22 10:54 pm- 0.0 6.0----30.15- 72.0 75.7----
2024-02-22 10:48 pm N 2.9 5.1----30.14- 72.0 75.7----
2024-02-22 10:42 pm NE 1.0 5.1----30.15- 72.0 75.6----
2024-02-22 10:36 pm E 1.0 2.9----30.15- 72.1 75.7----
2024-02-22 10:30 pm SE 1.9 4.1----30.15- 72.5 75.7----
2024-02-22 10:24 pmESE 2.9 7.0----30.15- 72.3 75.7----
2024-02-22 10:18 pm NE 1.9 6.0----30.15- 72.1 75.7----
2024-02-22 10:12 pmENE 1.0 4.1----30.15- 72.1 75.6----
2024-02-22 10:06 pm N 1.9 4.1----30.15- 72.3 75.6----
2024-02-22 10:00 pm NE 2.9 5.1----30.15+0.03 72.3 75.6----
2024-02-22 09:54 pm NE 2.9 5.1----30.15- 72.3 75.6----
2024-02-22 09:48 pmENE 2.9 5.1----30.15- 72.1 75.7----
2024-02-22 09:42 pmENE 2.9 4.1----30.15- 72.1 75.7----
2024-02-22 09:36 pm NE 1.9 4.1----30.15- 72.0 75.7----
2024-02-22 09:30 pmENE 1.9 2.9----30.15- 72.0 75.6----
2024-02-22 09:24 pm E 1.0 5.1----30.15- 72.0 75.6----
2024-02-22 09:18 pmENE 2.9 4.1----30.15- 72.0 75.6----
2024-02-22 09:12 pmENE 2.9 5.1----30.15- 72.0 75.6----
2024-02-22 09:06 pm E 1.9 5.1----30.15- 72.1 75.6----
2024-02-22 09:00 pm NE 2.9 5.1----30.15+0.04 72.1 75.4----
2024-02-22 08:54 pmENE 1.9 5.1----30.15- 72.3 75.4----
2024-02-22 08:48 pm NE 2.9 6.0----30.15- 72.3 75.4----
2024-02-22 08:42 pm NE 2.9 5.1----30.15- 72.3 75.4----
2024-02-22 08:36 pm NE 4.1 6.0----30.15- 72.5 75.4----
2024-02-22 08:30 pmENE 4.1 6.0----30.15- 72.7 75.4----
2024-02-22 08:24 pmENE 2.9 5.1----30.15- 72.7 75.4----
2024-02-22 08:18 pm NE 2.9 4.1----30.15- 72.7 75.4----
2024-02-22 08:12 pm E 1.0 6.0----30.14- 72.7 75.6----
2024-02-22 08:06 pm NE 2.9 6.0----30.14- 72.7 75.6----
2024-02-22 08:00 pmENE 4.1 7.0----30.14+0.05 72.9 75.6----
2024-02-22 07:54 pm E 2.9 6.0----30.14- 72.9 75.6----
2024-02-22 07:48 pm NE 4.1 5.1----30.14- 72.7 75.6----
2024-02-22 07:42 pmENE 2.9 6.0----30.13- 72.7 75.6----
2024-02-22 07:36 pm NE 4.1 8.0----30.13- 72.7 75.6----
2024-02-22 07:30 pm NE 5.1 8.9----30.13- 72.9 75.6----
2024-02-22 07:24 pmENE 1.9 8.9----30.13- 73.4 75.4----
2024-02-22 07:18 pm NE 4.1 8.0----30.13- 73.4 75.4----
2024-02-22 07:12 pm E 4.1 6.0----30.12- 73.6 75.4----
2024-02-22 07:06 pm NE 4.1 6.0----30.12- 73.6 75.4----
2024-02-22 07:00 pm E 1.9 6.0----30.12+0.03 73.6 75.6----
2024-02-22 06:54 pmENE 2.9 6.0----30.12- 73.8 75.6----
2024-02-22 06:48 pm E 5.1 8.9----30.12- 73.8 75.6----
2024-02-22 06:42 pm E 2.9 6.0----30.12- 73.8 75.6----
2024-02-22 06:36 pmESE 4.1 8.0----30.12- 73.8 75.6----
2024-02-22 06:30 pmENE 5.1 8.0----30.12- 73.6 75.6----
2024-02-22 06:24 pmENE 6.0 8.0----30.12- 73.9 75.6----
2024-02-22 06:18 pm NE 4.1 9.9----30.11- 74.1 75.6----
2024-02-22 06:12 pmENE 5.1 13.0----30.11- 74.1 75.6----
2024-02-22 06:06 pmENE 7.0 11.1----30.11- 74.3 75.6----
2024-02-22 06:00 pm NE 8.0 14.0----30.11+0.03 74.8 75.6----
2024-02-22 05:54 pm E 2.9 8.9----30.11- 75.6 75.4----
2024-02-22 05:48 pm E 2.9 8.0----30.10- 75.4 75.6----
2024-02-22 05:42 pm E 2.9 8.9----30.10- 75.4 75.6----
2024-02-22 05:36 pm E 4.1 8.0----30.10- 75.6 75.6----
2024-02-22 05:30 pmENE 2.9 8.9----30.10- 75.4 75.6----
2024-02-22 05:24 pmESE 5.1 14.0----30.10- 75.9 75.6----
2024-02-22 05:18 pmENE 2.9 8.9----30.10- 76.1 75.6----
2024-02-22 05:12 pm E 5.1 8.9----30.10- 76.3 75.6----
2024-02-22 05:06 pmENE 4.1 8.0----30.09- 76.3 75.6----
2024-02-22 05:00 pmENE 7.0 15.0----30.09-0.01 75.9 75.6----
2024-02-22 04:54 pmESE 7.0 12.0----30.09- 75.6 75.6----
2024-02-22 04:48 pmENE 4.1 14.0----30.09- 76.1 75.6----
2024-02-22 04:42 pmENE 7.0 9.9----30.10- 75.9 75.4----
2024-02-22 04:36 pmENE 7.0 14.0----30.10- 76.1 75.4----
2024-02-22 04:30 pmENE 5.1 8.9----30.09- 76.3 75.4----
2024-02-22 04:24 pm E 5.1 13.0----30.10- 75.7 75.4----
2024-02-22 04:18 pm E 6.0 9.9----30.10- 75.9 75.6----
2024-02-22 04:12 pmENE 5.1 11.1----30.10- 76.1 75.6----
2024-02-22 04:06 pmENE 6.0 9.9----30.10- 76.1 75.6----
2024-02-22 04:00 pmENE 8.0 9.9----30.09-0.04 75.7 75.6----
2024-02-22 03:54 pmENE 4.1 11.1----30.09- 76.6 75.6----
2024-02-22 03:48 pm E 6.0 13.0----30.09- 76.8 75.6----
2024-02-22 03:42 pmENE 8.0 14.0----30.09- 76.6 75.4----
2024-02-22 03:36 pmENE 5.1 9.9----30.09- 77.0 75.4----
2024-02-22 03:30 pmESE 5.1 11.1----30.09- 77.2 75.4----
2024-02-22 03:24 pmESE 4.1 8.0----30.09- 78.1 75.6----
2024-02-22 03:18 pmESE 4.1 13.0----30.09- 77.5 75.4----
2024-02-22 03:12 pm E 4.1 9.9----30.09- 77.5 75.6----
2024-02-22 03:06 pm E 4.1 12.0----30.09- 77.4 75.6----
2024-02-22 03:00 pmESE 7.0 12.0----30.09-0.07 77.2 75.6----
2024-02-22 02:54 pmENE 7.0 13.0----30.09- 76.8 75.4----
2024-02-22 02:48 pm E 2.9 12.0----30.09- 78.1 75.4----
2024-02-22 02:42 pmENE 5.1 11.1----30.09- 77.7 75.4----
2024-02-22 02:36 pm E 4.1 11.1----30.09- 77.4 75.2----
2024-02-22 02:30 pm E 6.0 11.1----30.09- 76.8 75.2----
2024-02-22 02:24 pm SE 6.0 11.1----30.09- 76.6 75.2----
2024-02-22 02:18 pm E 6.0 11.1----30.09- 77.2 75.4----
2024-02-22 02:12 pm E 8.0 13.0----30.10- 76.8 75.4----
2024-02-22 02:06 pmESE 5.1 11.1----30.10- 77.4 75.4----
2024-02-22 02:00 pmSSE 5.1 8.9----30.10-0.07 77.0 75.2----
2024-02-22 01:54 pmESE 5.1 12.0----30.11- 76.6 75.2----
2024-02-22 01:48 pmESE 7.0 15.0----30.11- 76.6 75.4----
2024-02-22 01:42 pmESE 5.1 9.9----30.11- 77.2 75.4----
2024-02-22 01:36 pmENE 2.9 9.9----30.11- 77.9 75.4----
2024-02-22 01:30 pm E 4.1 8.0----30.11-- 75.4----
2024-02-22 01:24 pm E 5.1 8.9----30.11-- 75.4----
2024-02-22 01:18 pmENE 2.9 11.1----30.12- 78.3 75.4----
2024-02-22 01:12 pm SE 6.0 11.1----30.12- 77.7 75.4----
2024-02-22 01:06 pm E 5.1 11.1----30.12- 77.9 75.4----
2024-02-22 01:00 pmESE 6.0 13.0----30.13-0.06- 75.4----
2024-02-22 12:54 pmENE 6.0 12.0----30.13-- 75.4----
2024-02-22 12:48 pmENE 5.1 12.0----30.14- 77.5 75.4----
2024-02-22 12:42 pm NE 7.0 11.1----30.14- 77.5 75.4----
2024-02-22 12:36 pmENE 8.0 15.0----30.14- 77.2 75.4----
2024-02-22 12:30 pmENE 7.0 13.0----30.14- 77.4 75.4----
2024-02-22 12:24 pm NE 5.1 15.9----30.14- 77.7 75.4----
2024-02-22 12:18 pm E 6.0 13.0----30.15- 77.5 75.4----
2024-02-22 12:12 pm E 7.0 11.1----30.15- 77.2 75.4----
2024-02-22 12:06 pmESE 6.0 11.1----30.15- 76.8 75.4----
2024-02-22 12:00 pm NE 5.1 13.0----30.16-0.02 76.6 75.4----
2024-02-22 11:54 am E 7.0 12.0----30.16- 76.5 75.4----
2024-02-22 11:48 am E 6.0 9.9----30.16- 76.6 75.4----
2024-02-22 11:42 am E 2.9 9.9----30.16- 77.4 75.4----
2024-02-22 11:36 am NE 2.9 6.0----30.16- 77.5 75.4----
2024-02-22 11:30 amENE 4.1 8.9----30.16- 77.0 75.4----
2024-02-22 11:24 amENE 6.0 12.0----30.17- 77.0 75.4----
2024-02-22 11:18 amENE 8.0 12.0----30.17- 75.9 75.4----
2024-02-22 11:12 amENE 6.0 9.9----30.17- 76.5 75.4----
2024-02-22 11:06 am E 4.1 12.0----30.17- 76.1 75.2----
2024-02-22 11:00 am E 4.1 13.0----30.17+0.01 76.1 75.2----
2024-02-22 10:54 amESE 6.0 12.0----30.18- 76.3 75.4----
2024-02-22 10:48 amESE 4.1 9.9----30.18- 77.2 75.4----
2024-02-22 10:42 amESE 7.0 12.0----30.18- 77.0 75.4----
2024-02-22 10:36 amESE 6.0 12.0----30.18- 76.6 75.4----
2024-02-22 10:30 am E 4.1 8.9----30.18- 77.0 75.4----
2024-02-22 10:24 amENE 8.0 9.9----30.18- 76.3 75.4----
2024-02-22 10:18 am E 4.1 8.9----30.18- 76.8 75.4----
2024-02-22 10:12 amENE 4.1 7.0----30.18- 76.1 75.4----
2024-02-22 10:06 amENE 5.1 8.9----30.18- 75.6 75.4----
2024-02-22 10:00 amENE 6.0 12.0----30.18+0.03 75.6 75.4----
2024-02-22 09:54 am NE 5.1 12.0----30.18- 75.6 75.4----
2024-02-22 09:48 amENE 8.0 12.0----30.18- 75.2 75.4----
2024-02-22 09:42 amENE 5.1 11.1----30.18- 75.2 75.4----
2024-02-22 09:36 am NE 4.1 7.0----30.18- 75.4 75.4----
2024-02-22 09:30 am E 4.1 11.1----30.18- 75.2 75.4----
2024-02-22 09:24 am E 5.1 11.1----30.18- 74.8 75.4----
2024-02-22 09:18 am E 2.9 8.9----30.18- 75.4 75.4----
2024-02-22 09:12 am E 4.1 8.0----30.18- 75.0 75.4----
2024-02-22 09:06 am E 5.1 8.0----30.17- 74.5 75.4----
2024-02-22 09:00 amENE 5.1 8.9----30.17+0.04 74.1 75.4----
2024-02-22 08:54 amENE 6.0 9.9----30.17- 73.6 75.4----